Dewar Lakes, Nunavut

1:45 AM EDT on May 28, 2017 (GMT -0400)
Dewar Lakes

Weather History for CWUW - June, 2013

Change the Weather History Date:

Wednesday, June 19, 2013

  Actual Average Record
Temperature  
Mean Temperature 27 °F -  
Max Temperature 30 °F 44 °F 44 °F (2008)
Min Temperature 24 °F 32 °F 23 °F (2007)
Degree Days  
Heating Degree Days 38    
Moisture  
Dew Point -    
Average Humidity    
Maximum Humidity    
Minimum Humidity    
Precipitation  
Precipitation 0.00 in 0.05 in - ()
Sea Level Pressure  
Sea Level Pressure 29.57 in    
Wind  
Wind Speed 12 mph ()    
Max Wind Speed 21 mph    
Max Gust Speed 20 mph    
Visibility 4.8 miles    
Events Snow    
Averages and records for this station are not official NWS values.
T = Trace of Precipitation, MM = Missing Value Source: Averaged Metar Reports

Daily Weather History Graph

Daily Weather History Graph

Search for Another Location

Airport or City:

Trip Planner

Search our weather history database for the weather conditions in past years. The results will help you decide how hot, cold, wet, or windy it might be!

Date:

Astronomy

Dec. 31, 1969 Rise Set
Actual Time Sun does not set Sun does not set
Civil Twilight Sun does not set Sun does not set
Nautical Twilight Sun does not set Sun does not set
Astronomical Twilight Sun does not set Sun does not set
Moon 6:16 PM EDT (6/19) 12:19 AM EDT (6/19)
Length of Visible Light 24h 00m
Length of Day
24h 00m
Waxing Gibbous, 80% of the Moon is Illuminated
Jun 19
Waxing Gibbous
Jun 23
Full
Jun 30
Last Quarter
Jul 8
New
Jul 15
First Quarter

Hourly Weather History & Observations

Time (EDT) Temp. Windchill Dew Point Humidity Pressure Visibility Wind Dir Wind Speed Gust Speed Precip Events Conditions
12:00 AM 30.2 °F 21.3 °F - N/A% 29.62 in 0.1 mi West 10.4 mph - N/A   Clear
1:00 AM 30.2 °F 22.6 °F - N/A% 29.62 in 0.1 mi West 8.1 mph - N/A   Clear
2:00 AM 29 °F - - % 29.62 in 0 mi West 9.2 mph - -  
2:00 AM 28.4 °F 20.4 °F - N/A% 29.62 in 0.2 mi West 8.1 mph - N/A   Clear
2:07 AM 28.4 °F 19.7 °F - N/A% 29.51 in 0.1 mi West 9.2 mph - N/A   Overcast
2:10 AM 28.4 °F 19.7 °F - N/A% 29.51 in 0.1 mi WNW 9.2 mph - N/A   Overcast
2:46 AM 28.4 °F 21.2 °F - N/A% 29.51 in 0.1 mi West 6.9 mph - N/A Snow Light Snow
2:56 AM 28.4 °F 19.7 °F - N/A% 29.50 in 0.1 mi West 9.2 mph - N/A   Clear
3:00 AM 28.4 °F 20.4 °F - N/A% 29.62 in 0.1 mi West 8.1 mph - N/A   Clear
3:09 AM 28.4 °F 19.7 °F - N/A% 29.50 in 0.1 mi West 9.2 mph - N/A   Light Freezing Drizzle
3:31 AM 28.4 °F 19.7 °F - N/A% 29.50 in 0.1 mi West 9.2 mph - N/A   Light Freezing Drizzle
3:57 AM 28.4 °F 20.4 °F - N/A% 29.51 in 0.1 mi West 8.1 mph - N/A   Light Freezing Drizzle
4:00 AM 28.4 °F 20.4 °F - N/A% 29.62 in 0.1 mi West 8.1 mph - N/A   Light Freezing Drizzle
4:01 AM 28.4 °F 20.4 °F - N/A% 29.51 in 0.1 mi West 8.1 mph - N/A   Clear
4:09 AM 28.4 °F 20.4 °F - N/A% 29.50 in 0.1 mi West 8.1 mph - N/A   Light Freezing Drizzle
4:14 AM 28.4 °F 19.7 °F - N/A% 29.50 in 0.1 mi West 9.2 mph - N/A   Light Freezing Drizzle
4:50 AM 28.4 °F 20.4 °F - N/A% 29.50 in 0.1 mi NW 8.1 mph - N/A Snow Light Snow
5:00 AM 28 °F - - % 29.62 in 0 mi NW 8.1 mph - - Snow Light Snow
5:00 AM 28.4 °F 19.7 °F - N/A% 29.62 in 0.1 mi NW 9.2 mph - N/A Snow Light Snow
5:25 AM 26.6 °F 16.8 °F - N/A% 29.50 in 0.1 mi NW 10.4 mph - N/A   Clear
5:51 AM 26.6 °F 16.8 °F - N/A% 29.50 in 0.1 mi NW 10.4 mph - N/A Snow Light Snow
6:00 AM 26.6 °F 16.2 °F - N/A% 29.62 in 0.1 mi NW 11.5 mph - N/A Snow Light Snow
6:05 AM 26.6 °F 16.8 °F - N/A% 29.50 in 0.1 mi WNW 10.4 mph - N/A Snow Light Snow
6:38 AM 26.6 °F 18.2 °F - N/A% 29.51 in 0.1 mi NNW 8.1 mph - N/A   Overcast
6:59 AM 26.6 °F 19.1 °F - N/A% 29.50 in 0.2 mi NW 6.9 mph - N/A   Overcast
7:00 AM 26.6 °F 18.2 °F - N/A% 29.62 in 0.2 mi NW 8.1 mph - N/A   Overcast
7:07 AM 26.6 °F 19.1 °F - N/A% 29.50 in 1.8 mi NW 6.9 mph - N/A   Overcast
7:11 AM 26.6 °F 20.0 °F - N/A% 29.50 in 3.0 mi NW 5.8 mph - N/A   Overcast
7:14 AM 26.6 °F 19.1 °F - N/A% 29.50 in 3.0 mi WNW 6.9 mph - N/A   Overcast
7:18 AM 26.6 °F 19.1 °F - N/A% 29.51 in 3.5 mi WNW 6.9 mph - N/A   Overcast
7:19 AM 26.6 °F 20.0 °F - N/A% 29.51 in 2.0 mi WNW 5.8 mph - N/A   Overcast
7:38 AM 26.6 °F 17.5 °F - N/A% 29.50 in 9.0 mi WNW 9.2 mph - N/A   Clear
7:47 AM 26.6 °F 16.8 °F - N/A% 29.50 in 9.0 mi WNW 10.4 mph - N/A   Overcast
7:51 AM 26.6 °F 16.8 °F - N/A% 29.51 in 9.0 mi WNW 10.4 mph - N/A   Overcast
8:00 AM 26 °F - - % 29.62 in 9 mi WNW 11.5 mph - -   Overcast
8:00 AM 26.6 °F 15.2 °F - N/A% 29.62 in 9.0 mi WNW 13.8 mph - N/A   Overcast
8:11 AM 26.6 °F 16.2 °F - N/A% 29.50 in 9.0 mi WNW 11.5 mph - N/A   Overcast
8:33 AM 26.6 °F 16.2 °F - N/A% 29.50 in 9.0 mi WNW 11.5 mph - N/A   Overcast
9:00 AM 26.6 °F 16.2 °F - N/A% 29.63 in 9.0 mi WNW 11.5 mph - N/A   Overcast
9:21 AM 26.6 °F 13.8 °F - N/A% 29.51 in 9.0 mi WNW 17.3 mph - N/A Snow Light Snow
9:40 AM 26.6 °F 15.2 °F - N/A% 29.51 in 9.0 mi WNW 13.8 mph - N/A Snow Light Snow
10:00 AM 24.8 °F 11.9 °F - N/A% 29.64 in 9.0 mi WNW 16.1 mph - N/A Snow Light Snow
10:19 AM 24.8 °F 12.4 °F - N/A% 29.51 in 9.0 mi WNW 15.0 mph - N/A   Mostly Cloudy
10:22 AM 24.8 °F 11.5 °F - N/A% 29.51 in 9.0 mi WNW 17.3 mph - N/A   Scattered Clouds
10:44 AM 26.6 °F 15.2 °F - N/A% 29.51 in 9.0 mi WNW 13.8 mph - N/A Snow Light Snow
10:53 AM 24.8 °F 12.4 °F - N/A% 29.51 in 9.0 mi West 15.0 mph - N/A Snow Light Snow
10:59 AM 24.8 °F 14.0 °F - N/A% 29.52 in 9.0 mi WNW 11.5 mph - N/A   Mostly Cloudy
11:00 AM 26 °F - - % 29.64 in 9 mi West 13.8 mph - -  
11:00 AM 26.6 °F 16.2 °F - N/A% 29.64 in 9.0 mi WNW 11.5 mph - N/A   Mostly Cloudy
11:21 AM 26.6 °F 13.4 °F - N/A% 29.52 in 9.0 mi West 18.4 mph - N/A Snow Light Snow
12:00 PM 26.6 °F 14.3 °F - N/A% 29.64 in 9.0 mi WNW 16.1 mph - N/A Snow Light Snow
1:00 PM 27.5 °F 15.4 °F - N/A% 29.64 in 9.0 mi WNW 16.1 mph - N/A Snow Light Snow
2:00 PM 28 °F - - % 29.65 in 9 mi West 16.1 mph - -   Overcast
2:00 PM 27.5 °F 14.6 °F - N/A% 29.65 in 9.0 mi West 18.4 mph - N/A Snow Light Snow
2:14 PM 28.6 °F 16.4 °F - N/A% 29.53 in 9.0 mi WSW 17.3 mph - N/A   Overcast
2:33 PM 28.9 °F 16.1 °F - N/A% 29.53 in 9.0 mi WSW 19.6 mph - N/A   Overcast
3:00 PM 28.9 °F 16.5 °F - N/A% 29.66 in 9.0 mi West 18.4 mph - N/A   Overcast
4:00 PM 28.9 °F 16.5 °F - N/A% 29.67 in 9.0 mi West 18.4 mph - N/A   Overcast
4:08 PM 29.3 °F 16.2 °F - N/A% 29.54 in 9.0 mi WSW 20.7 mph - N/A   Overcast
4:35 PM 29.1 °F 17.5 °F - N/A% 29.55 in 9.0 mi West 16.1 mph - N/A   Overcast
5:00 PM 29 °F - - % 29.67 in 9 mi WSW 18.4 mph - -   Overcast
5:00 PM 29.1 °F 17.1 °F - N/A% 29.67 in 9.0 mi WSW 17.3 mph - N/A   Overcast
6:00 PM 28.6 °F 15.6 °F - N/A% 29.68 in 9.0 mi West 19.6 mph - N/A   Overcast
7:00 PM 28.0 °F 16.1 °F - N/A% 29.68 in 9.0 mi WSW 16.1 mph - N/A   Overcast
7:07 PM 28.6 °F 16.4 °F - N/A% 29.56 in 9.0 mi WSW 17.3 mph - N/A   Overcast
8:00 PM 28 °F - - % 29.68 in 9 mi WSW 17.3 mph - -   Overcast
8:00 PM 28.2 °F 15.5 °F - N/A% 29.68 in 9.0 mi WSW 18.4 mph - N/A   Overcast
8:07 PM 28.0 °F 15.3 °F - N/A% 29.56 in 9.0 mi WSW 18.4 mph - N/A   Overcast
8:11 PM 28.4 °F 15.4 °F - N/A% 29.56 in 9.0 mi WSW 19.6 mph - N/A   Overcast
8:31 PM 27.9 °F 15.5 °F - N/A% 29.56 in 9.0 mi WSW 17.3 mph - N/A   Mostly Cloudy
8:33 PM 27.9 °F 14.7 °F - N/A% 29.56 in 9.0 mi WSW 19.6 mph - N/A   Mostly Cloudy
8:44 PM 27.7 °F 15.2 °F - N/A% 29.56 in 9.0 mi SW 17.3 mph - N/A   Overcast
8:51 PM 27.3 °F 13.6 °F - N/A% 29.56 in 9.0 mi SW 20.7 mph - N/A   Overcast
8:56 PM 27.0 °F 13.9 °F - N/A% 29.56 in 9.0 mi WSW 18.4 mph - N/A   Overcast
8:57 PM 27.0 °F 13.5 °F - N/A% 29.56 in 7.0 mi SW 19.6 mph - N/A   Overcast
8:58 PM 26.6 °F 13.4 °F - N/A% 29.56 in 2.5 mi SW 18.4 mph - N/A   Overcast
9:00 PM 26.6 °F 13.8 °F - N/A% 29.69 in 1.0 mi SW 17.3 mph - N/A   Overcast
9:06 PM 26.6 °F 15.2 °F - N/A% 29.56 in 0.8 mi SW 13.8 mph 19.6 mph N/A   Overcast
9:09 PM 26.6 °F 14.3 °F - N/A% 29.57 in 1.5 mi SW 16.1 mph - N/A   Overcast
9:10 PM 26.6 °F 13.8 °F - N/A% 29.56 in 3.0 mi WSW 17.3 mph - N/A   Overcast
9:19 PM 26.6 °F 13.8 °F - N/A% 29.56 in 9.0 mi SW 17.3 mph - N/A   Overcast
9:24 PM 26.6 °F 13.1 °F - N/A% 29.56 in 9.0 mi WSW 19.6 mph - N/A   Overcast
9:34 PM 26.6 °F 14.3 °F - N/A% 29.56 in 9.0 mi WSW 16.1 mph - N/A   Overcast
9:38 PM 26.6 °F 13.8 °F - N/A% 29.56 in 9.0 mi WSW 17.3 mph - N/A   Overcast
9:45 PM 26.6 °F 13.8 °F - N/A% 29.56 in 9.0 mi WSW 17.3 mph - N/A   Overcast
9:54 PM 26.6 °F 14.3 °F - N/A% 29.56 in 2.8 mi WSW 16.1 mph - N/A   Overcast
9:55 PM 26.6 °F 13.8 °F - N/A% 29.56 in 2.6 mi WSW 17.3 mph - N/A   Overcast
10:00 PM 26.6 °F 14.7 °F - N/A% 29.69 in 7.0 mi SW 15.0 mph - N/A   Overcast
10:14 PM 26.6 °F 13.4 °F - N/A% 29.56 in 2.0 mi WSW 18.4 mph - N/A   Overcast
10:15 PM 26.6 °F 13.4 °F - N/A% 29.56 in 1.1 mi WSW 18.4 mph - N/A   Overcast
10:16 PM 26.6 °F 13.8 °F - N/A% 29.56 in 0.8 mi WSW 17.3 mph - N/A   Overcast
10:17 PM 26.6 °F 13.8 °F - N/A% 29.56 in 0.6 mi WSW 17.3 mph - N/A   Overcast
10:21 PM 26.6 °F 14.7 °F - N/A% 29.56 in 0.4 mi SW 15.0 mph - N/A   Overcast
10:28 PM 26.6 °F 14.7 °F - N/A% 29.56 in 0.8 mi SW 15.0 mph - N/A   Clear
10:31 PM 26.6 °F 14.7 °F - N/A% 29.56 in 2.0 mi SW 15.0 mph - N/A   Clear
10:39 PM 26.6 °F 14.3 °F - N/A% 29.57 in 1.1 mi SW 16.1 mph - N/A Snow Light Snow
10:40 PM 26.6 °F 13.8 °F - N/A% 29.56 in 0.8 mi SW 17.3 mph - N/A Snow Light Snow
10:41 PM 26.6 °F 13.8 °F - N/A% 29.56 in 0.6 mi SW 17.3 mph - N/A Snow Light Snow
10:44 PM 26.6 °F 14.7 °F - N/A% 29.56 in 0.4 mi SW 15.0 mph - N/A Snow Light Snow
10:52 PM 26.6 °F 15.2 °F - N/A% 29.56 in 1.0 mi SW 13.8 mph - N/A Snow Light Snow
10:54 PM 26.6 °F 16.2 °F - N/A% 29.56 in 1.2 mi SW 11.5 mph - N/A   Light Freezing Drizzle
10:55 PM 26.6 °F 15.2 °F - N/A% 29.56 in 1.1 mi SW 13.8 mph - N/A   Overcast
10:56 PM 26.6 °F 14.7 °F - N/A% 29.56 in 1.0 mi SW 15.0 mph - N/A   Overcast
10:57 PM 26.6 °F 14.7 °F - N/A% 29.56 in 0.6 mi SW 15.0 mph - N/A   Overcast
11:00 PM 26 °F - - % 29.69 in 0 mi WSW 13.8 mph - -   Overcast
11:00 PM 24.8 °F 12.4 °F - N/A% 29.69 in 0.4 mi WSW 15.0 mph - N/A   Overcast
11:18 PM 24.8 °F 13.4 °F - N/A% 29.56 in 0.8 mi WSW 12.7 mph - N/A   Clear
11:20 PM 24.8 °F 11.9 °F - N/A% 29.56 in 1.6 mi WSW 16.1 mph - N/A   Mostly Cloudy
11:23 PM 24.8 °F 13.4 °F - N/A% 29.56 in 3.0 mi SW 12.7 mph - N/A   Mostly Cloudy
11:24 PM 24.8 °F 14.0 °F - N/A% 29.56 in 3.0 mi SW 11.5 mph 17.3 mph N/A   Overcast
11:28 PM 26.6 °F 15.2 °F - N/A% 29.56 in 3.0 mi WSW 13.8 mph - N/A   Overcast
11:31 PM 24.8 °F 12.9 °F - N/A% 29.56 in 3.0 mi SW 13.8 mph - N/A   Overcast
11:32 PM 24.8 °F 13.4 °F - N/A% 29.56 in 6.0 mi SW 12.7 mph - N/A   Overcast
11:38 PM 24.8 °F 12.4 °F - N/A% 29.56 in 9.0 mi SW 15.0 mph - N/A   Overcast
11:46 PM 24.8 °F 13.4 °F - N/A% 29.55 in 9.0 mi SW 12.7 mph - N/A   Overcast
11:47 PM 24.8 °F 13.4 °F - N/A% 29.55 in 9.0 mi SW 12.7 mph - N/A   Overcast
11:52 PM 24.8 °F 12.9 °F - N/A% 29.56 in 9.0 mi SW 13.8 mph - N/A   Overcast
11:53 PM 24.8 °F 12.9 °F - N/A% 29.56 in 9.0 mi SW 13.8 mph - N/A   Overcast
11:54 PM 26.6 °F 15.2 °F - N/A% 29.56 in 9.0 mi SW 13.8 mph - N/A   Overcast